Bishop, CA

1:02 PM PDT on June 23, 2017 (GMT -0700)
Bishop

Weather History for KBIH - March, 2014

Change the Weather History Date:

Thursday, March 6, 2014

  Actual Average Record
Temperature  
Mean Temperature 57 °F 46 °F  
Max Temperature 74 °F 63 °F 85 °F (1972)
Min Temperature 40 °F 30 °F 14 °F (1971)
Degree Days  
Heating Degree Days 8 19  
Month to date heating degree days 95 115  
Since 1 July heating degree days 3045 3322  
Cooling Degree Days 0 0  
Month to date cooling degree days 0 0  
Year to date cooling degree days 0 0  
Growing Degree Days 8 (Base 50)    
Moisture  
Dew Point 28 °F    
Average Humidity 45    
Maximum Humidity 76    
Minimum Humidity 14    
Precipitation  
Precipitation T in 0.03 in 0.19 in (1962)
Month to date precipitation T 0.14  
Year to date precipitation 1.91 2.04  
Snow  
Snow 0.00 in 0.00 in 0.10 in (1998)
Month to date snowfall 0.0 0.1  
Since 1 July snowfall 0.5 7.5  
Snow Depth 0.00 in    
Sea Level Pressure  
Sea Level Pressure 29.91 in    
Wind  
Wind Speed 12 mph (NW)    
Max Wind Speed 29 mph    
Max Gust Speed 37 mph    
Visibility 10 miles    
Events Rain    
T = Trace of Precipitation, MM = Missing Value Source: NWS Daily Summary

Daily Weather History Graph

Daily Weather History Graph

Search for Another Location

Airport or City:

Trip Planner

Search our weather history database for the weather conditions in past years. The results will help you decide how hot, cold, wet, or windy it might be!

Date:

Astronomy

Mar. 06, 2014 Rise Set
Actual Time 6:17 AM PST 5:52 PM PST
Civil Twilight 5:51 AM PST 6:18 PM PST
Nautical Twilight 5:21 AM PST 6:48 PM PST
Astronomical Twilight 4:50 AM PST 7:19 PM PST
Moon 9:36 AM PST (3/6) 11:55 PM PST (3/6)
Length of Visible Light 12h 27m
Length of Day
11h 34m
Waxing Crescent, 33% of the Moon is Illuminated
Mar 6
Waxing Crescent
Mar 8
First Quarter
Mar 16
Full
Mar 23
Last Quarter
Mar 30
New

Hourly Weather History & Observations

Time (PST) Temp. Windchill Dew Point Humidity Pressure Visibility Wind Dir Wind Speed Gust Speed Precip Events Conditions
12:56 AM 43.0 °F 40.3 °F 35.1 °F 74% 29.96 in 10.0 mi ENE 4.6 mph - N/A   Clear
1:56 AM 45.0 °F 42.6 °F 36.0 °F 71% 29.94 in 10.0 mi WNW 4.6 mph - N/A   Overcast
2:56 AM 42.1 °F 40.2 °F 35.1 °F 76% 29.93 in 10.0 mi North 3.5 mph - N/A   Mostly Cloudy
3:56 AM 43.0 °F 38.8 °F 36.0 °F 76% 29.98 in 10.0 mi North 6.9 mph - N/A   Mostly Cloudy
4:56 AM 46.9 °F - 37.0 °F 68% 29.89 in 10.0 mi NW 11.5 mph - N/A   Clear
5:56 AM 48.9 °F - 37.0 °F 64% 29.97 in 10.0 mi NE 6.9 mph - N/A   Overcast
6:56 AM 53.1 °F - 37.9 °F 57% 29.99 in 10.0 mi ENE 4.6 mph - 0.00 in Rain Light Rain
7:56 AM 59.0 °F - 37.9 °F 46% 29.94 in 10.0 mi NNW 3.5 mph - 0.00 in   Clear
8:56 AM 61.0 °F - 39.9 °F 46% 29.95 in 10.0 mi WNW 10.4 mph - N/A   Clear
9:56 AM 66.9 °F - 37.9 °F 34% 29.93 in 10.0 mi North 6.9 mph - N/A   Clear
10:56 AM 72.0 °F - 28.0 °F 20% 29.89 in 10.0 mi WSW 5.8 mph - N/A   Clear
11:56 AM 72.0 °F - 21.0 °F 15% 29.88 in 10.0 mi WSW 26.5 mph 35.7 mph N/A   Clear
12:56 PM 73.0 °F - 23.0 °F 15% 29.83 in 10.0 mi West 11.5 mph 21.9 mph N/A   Clear
1:56 PM 73.0 °F - 21.0 °F 14% 29.81 in 10.0 mi West 13.8 mph 20.7 mph N/A   Clear
2:56 PM 70.0 °F - 19.0 °F 14% 29.82 in 10.0 mi WSW 23.0 mph 33.4 mph N/A   Clear
3:56 PM 70.0 °F - 19.9 °F 15% 29.81 in 10.0 mi WSW 19.6 mph 33.4 mph N/A   Clear
4:56 PM 66.9 °F - 19.9 °F 17% 29.81 in 10.0 mi WSW 20.7 mph 32.2 mph N/A   Clear
5:56 PM 64.0 °F - 19.9 °F 18% 29.84 in 10.0 mi WSW 6.9 mph 24.2 mph N/A   Clear
6:56 PM 60.1 °F - 23.0 °F 24% 29.85 in 10.0 mi North 8.1 mph - N/A   Clear
7:56 PM 59.0 °F - 19.0 °F 21% 29.88 in 10.0 mi North 17.3 mph - N/A   Clear
8:56 PM 55.9 °F - 21.0 °F 26% 29.91 in 10.0 mi NNW 12.7 mph - N/A   Clear
9:56 PM 53.1 °F - 23.0 °F 31% 29.94 in 10.0 mi North 23.0 mph 31.1 mph N/A   Clear
10:56 PM 51.1 °F - 21.9 °F 32% 29.96 in 10.0 mi North 16.1 mph 27.6 mph N/A   Clear
11:56 PM 48.9 °F - 21.0 °F 33% 29.99 in 10.0 mi NNW 17.3 mph 24.2 mph N/A   Clear